This is the latest recevied weather packets stored in our database for station/object OK1HOL-13. If no packets are shown the sender has not sent any weather packets the latest 10 day(s).
| Time | Temp. | Humidity | Pressure | Rain* | Wind** | Luminosity | Snow |
|---|---|---|---|---|---|---|---|
| 1778151366 | 16.67° C | 48% | 1012.2 hPa | - | - | 108 W/m² | - |
| 1778150766 | 16.67° C | 49% | 1012.1 hPa | - | - | 143 W/m² | - |
| 1778150166 | 16.67° C | 51% | 1012 hPa | - | - | 159 W/m² | - |
| 1778149566 | 16.67° C | 49% | 1012 hPa | - | - | 191 W/m² | - |
| 1778148966 | 16.67° C | 50% | 1011.9 hPa | - | - | 309 W/m² | - |
| 1778148366 | 16.67° C | 51% | 1011.8 hPa | - | - | 196 W/m² | - |
| 1778147766 | 16.67° C | 52% | 1011.8 hPa | - | - | 154 W/m² | - |
| 1778147166 | 16.67° C | 51% | 1011.7 hPa | - | - | 186 W/m² | - |
| 1778146566 | 16.67° C | 52% | 1011.5 hPa | - | - | 431 W/m² | - |
| 1778145966 | 16.11° C | 55% | 1011.5 hPa | - | - | 126 W/m² | - |
| 1778145366 | 16.11° C | 55% | 1011.5 hPa | - | - | 72 W/m² | - |
| 1778144766 | 16.67° C | 54% | 1011.3 hPa | - | - | 74 W/m² | - |
| 1778144166 | 16.67° C | 54% | 1011.4 hPa | - | - | 422 W/m² | - |
| 1778143566 | 16.11° C | 56% | 1011.3 hPa | - | - | 253 W/m² | - |
| 1778142966 | 17.22° C | 55% | 1011.1 hPa | - | - | 431 W/m² | - |
| 1778142366 | 15.56° C | 58% | 1011 hPa | - | - | 108 W/m² | - |
| 1778141766 | 16.11° C | 57% | 1011 hPa | - | - | 431 W/m² | - |
| 1778141166 | 15.56° C | 61% | 1010.9 hPa | - | - | 76 W/m² | - |
| 1778140566 | 15.56° C | 61% | 1010.9 hPa | - | - | 105 W/m² | - |
| 1778139966 | 15.56° C | 62% | 1010.9 hPa | - | - | 139 W/m² | - |
| 1778139366 | 15° C | 64% | 1010.8 hPa | - | - | 149 W/m² | - |
| 1778138766 | 15° C | 64% | 1010.8 hPa | - | - | 135 W/m² | - |
| 1778138166 | 15° C | 64% | 1010.6 hPa | - | - | 112 W/m² | - |
| 1778137566 | 15° C | 64% | 1010.5 hPa | - | - | 130 W/m² | - |
| 1778136966 | 15° C | 66% | 1010.5 hPa | - | - | 141 W/m² | - |
* Rain since midnight (hover to see other rain measurements)
** Current wind speed in m/s (hover to see current wind gust speed)